TIANWANG 1B (TW-1B)
1 40927U 15051C   19169.48327760  .00007965  00000-0  12395-3 0  9997
2 40927  97.1390 215.0275 0009031  36.9982  70.5982 15.54127027209988
TIANWANG 1A (TW-1A)
1 40928U 15051D   19169.35739676  .00002350  00000-0  59287-4 0  9992
2 40928  97.1450 200.6693 0013031  77.0320 339.0844 15.40760056209123
LAPAN A2
1 40931U 15052B   19167.18766104  .00000614  00000-0 -34366-5 0  9996
2 40931   6.0047  74.3720 0012472 121.1773 239.0129 14.76607338200897
LQSAT
1 40958U 15057A   19167.79772924 -.00000036  00000-0  20425-5 0  9993
2 40958  97.8992 237.0460 0016860 245.2505 114.6914 14.73080952198528
CHUBUSAT 2
1 41338U 16012B   19168.36094559  .00000221  00000-0  10437-4 0  9999
2 41338  31.0019 153.2258 0013750  90.1580 270.0631 15.00150970182716
CHUBUSAT 3
1 41339U 16012C   19169.32853920  .00000219  00000-0  10231-4 0  9991
2 41339  31.0081 145.1705 0013548 107.3028 252.9092 15.00327049182854
OUFTI-1
1 41458U 16025C   19169.19006344  .00000923  00000-0  51119-4 0  9994
2 41458  98.1016 256.0063 0166430 359.2905   0.8058 15.05805725172496
E-STAR-2
1 41459U 16025D   19169.47223811 -.00000010  00000-0  41726-5 0  9998
2 41459  98.1021 255.9676 0167895 359.6454   0.4615 15.05447205172513
AAUSAT 4
1 41460U 16025E   19169.18267713  .00001346  00000-0  71362-4 0  9997
2 41460  98.0955 256.9001 0157997 353.1845   6.7243 15.07326166172596
NUSAT 1
1 41557U 16033B   19169.45442467  .00000793  00000-0  32501-4 0  9991
2 41557  97.4180 256.9553 0012320 302.5487  57.4561 15.27201305170052
BEESAT 4
1 41619U 16040W   19168.72667293  .00000951  00000-0  43188-4 0  9992
2 41619  97.3676 230.9685 0012232  34.9366 325.2671 15.23115418153719
PRATHAM
1 41783U 16059A   19169.39425184  .00000036  00000-0  16212-4 0  9991
2 41783  98.0674 228.9829 0034128  27.2867 333.0119 14.62995493145506
ALSAT 1N
1 41789U 16059G   19169.51983542  .00000057  00000-0  19919-4 0  9998
2 41789  98.0699 231.0998 0028803  16.9046 343.3116 14.64244645145620
NAYIF 1
1 42017U 17008BX  19168.84478420  .00001044  00000-0  44046-4 0  9993
2 42017  97.4031 235.9477 0006789 157.7104 202.4430 15.25514984129799
MAX VALIER SAT
1 42778U 17036P   19168.73968312  .00000624  00000-0  30313-4 0  9995
2 42778  97.3544 226.4276 0011195 221.3881 138.6508 15.22005879110094
